[[{"header":{"parameterUnit":"m.s-1","parameterCategory":1,"la1":30.2992,"la2":30.254,"lo1":-89.0895,"lo2":-89.0443,"dy":0.0025,"dx":0.0025,"nx":19,"ny":19,"refTime":"2026-05-05T09:00:00:Z","depth":0,"parameterNumber":2,"parameterNumberName":"U-component_of_WINDS"},"data":[0,0,0,0.5096,0.5096,0.5045,0.5045,0.4991,0.4991,0,0,0,0,0,0,0,0,0,0,0,0.5119,0.5119,0.5097,0.5096,0.5045,0.5045,0.4991,0.4991,0,0,0,0,0,0,0,0,0,0,0,0.5119,0.5119,0.5119,0.5095,0.5045,0.5045,0.4991,0.5025,0,0,0,0,0,0,0,0,0,0,0.5072,0.51,0.5119,0.5119,0.5095,0.5046,0.5045,0.5027,0.5023,0.5019,0,0.5018,0,0.5003,0.4988,0.4988,0,0,0,0.509,0.5104,0.5083,0.5119,0.5095,0.5046,0.5066,0.5025,0.5021,0.5014,0.5017,0.5014,0.5003,0.4988,0.4987,0.4981,0.4981,0,0,0.5093,0.5114,0.5086,0.5081,0.5091,0.5068,0.5065,0.5022,0.5026,0.5017,0.5013,0.5002,0.4987,0.4987,0.4981,0.4981,0,0,0,0.5104,0.5116,0.5096,0.5084,0.5074,0.5067,0.5063,0.5028,0.502,0.5012,0.5001,0.4987,0.4987,0.4981,0.4981,0.5013,0,0,0,0.5106,0.5123,0.5098,0.511,0.5075,0.5051,0.507,0.5023,0.5017,0.5001,0.4987,0.4986,0.498,0.4981,0.5011,0.5024,0,0,0,0.512,0.5124,0.512,0.5112,0.5091,0.5051,0.504,0.5021,0.5011,0.4988,0.4986,0.498,0.4981,0.501,0.5021,0.5027,0,0,0,0.514,0.515,0.5121,0.5126,0.5092,0.5071,0.504,0.5024,0.5008,0.4987,0.498,0.4981,0.5009,0.502,0.5025,0.5034,0.504,0,0,0.5164,0.5153,0.5155,0.5127,0.5118,0.5077,0.5071,0.5037,0.5015,0.4993,0.4993,0.5012,0.5021,0.5026,0.5069,0.5074,0,0,0,0.5169,0.517,0.5163,0.5149,0.5123,0.51,0.5065,0.5051,0.5031,0.5009,0.5015,0.502,0.5022,0.5025,0.5029,0.5029,0.4984,0.4984,0.4984,0.5232,0.5203,0.5203,0.5168,0.5155,0.5117,0.5102,0.5078,0.5054,0.5055,0.5048,0.5078,0.5082,0.5085,0.5085,0.5052,0.5052,0.5052,0.5052,0.5262,0.5258,0.5225,0.5212,0.5182,0.517,0.5133,0.5116,0.51,0.5081,0.5081,0.5062,0.5091,0.5089,0.5054,0.5054,0.5054,0.5053,0.5053,0.5298,0.5291,0.5275,0.525,0.5234,0.5198,0.5184,0.5157,0.5131,0.5131,0.5119,0.5119,0.5113,0.5128,0.5128,0.5128,0.5128,0.5128,0.5128,0.5342,0.5323,0.5314,0.5286,0.5272,0.5251,0.5211,0.5197,0.5173,0.5154,0.5154,0.5128,0.51,0.5093,0.513,0.5129,0.5129,0.5129,0.5129,0.538,0.5366,0.5354,0.534,0.5303,0.5288,0.5253,0.5225,0.5209,0.5202,0.5176,0.5161,0.5148,0.5144,0.5138,0.5184,0.5184,0.5184,0.5184,0.5409,0.54,0.538,0.5359,0.5336,0.5303,0.5287,0.5256,0.5221,0.5209,0.5199,0.5188,0.5186,0.5174,0.517,0.5163,0.5215,0.5215,0.5215,0.543,0.5417,0.5409,0.5376,0.5345,0.5319,0.5302,0.5278,0.5237,0.5215,0.5198,0.5197,0.518,0.5176,0.5154,0.5148,0.5136,0,0]},{"header":{"parameterUnit":"m.s-1","parameterCategory":1,"la1":30.2992,"la2":30.254,"lo1":-89.0895,"lo2":-89.0443,"dy":0.0025,"dx":0.0025,"nx":19,"ny":19,"refTime":"2026-05-05T09:00:00:Z","depth":0,"parameterNumber":3,"parameterNumberName":"V-component_of_WINDS"},"data":[0,0,0,4.3763,4.3766,4.3873,4.3873,4.402,4.4021,0,0,0,0,0,0,0,0,0,0,0,4.3741,4.3742,4.3763,4.3766,4.3873,4.3873,4.402,4.4021,0,0,0,0,0,0,0,0,0,0,0,4.374,4.3742,4.3743,4.3766,4.3873,4.3873,4.4019,4.3934,0,0,0,0,0,0,0,0,0,0,4.3828,4.3818,4.3741,4.3743,4.3767,4.3873,4.3874,4.393,4.394,4.3976,0,4.4015,0,4.4021,4.4032,4.4033,0,0,0,4.3758,4.381,4.383,4.3744,4.3768,4.3873,4.3823,4.3935,4.3946,4.3989,4.4017,4.4022,4.4023,4.4033,4.4034,4.4275,4.4276,0,0,4.3753,4.3765,4.3823,4.3838,4.3826,4.3819,4.3826,4.3942,4.3971,4.4017,4.4025,4.4025,4.4034,4.4035,4.4274,4.4275,0,0,0,4.3741,4.3761,4.3778,4.3832,4.3851,4.3823,4.383,4.3966,4.3971,4.4026,4.4027,4.4035,4.4037,4.4272,4.4274,4.4356,0,0,0,4.3737,4.3754,4.3776,4.3784,4.3849,4.3911,4.3852,4.3963,4.3976,4.4026,4.4035,4.4039,4.427,4.4273,4.4351,4.4393,0,0,0,4.373,4.3753,4.3772,4.3785,4.3832,4.3909,4.392,4.3965,4.3977,4.4033,4.4039,4.4269,4.4273,4.4346,4.4384,4.4456,0,0,0,4.3727,4.3846,4.3773,4.3906,4.3831,4.396,4.3919,4.4015,4.4073,4.4036,4.4271,4.4274,4.4344,4.4379,4.4451,4.4517,4.4547,0,0,4.3883,4.3865,4.3941,4.388,4.4025,4.3943,4.4099,4.4141,4.4135,4.4228,4.4233,4.4353,4.4384,4.4455,4.4715,4.4738,0,0,0,4.3995,4.4049,4.4085,4.4142,4.4177,4.4209,4.4226,4.4241,4.4318,4.4187,4.44,4.4418,4.4459,4.449,4.451,4.4542,4.429,4.4289,4.4289,4.4232,4.4217,4.4341,4.4339,4.4394,4.4408,4.445,4.4471,4.4443,4.4493,4.4519,4.4678,4.4715,4.473,4.4764,4.4556,4.4556,4.4556,4.4557,4.4456,4.4529,4.4485,4.4589,4.4572,4.4658,4.4675,4.4651,4.4726,4.4659,4.4694,4.4619,4.4757,4.4785,4.4563,4.4562,4.4561,4.456,4.456,4.4606,4.4638,4.4655,4.4731,4.4791,4.4784,4.4858,4.484,4.4824,4.4859,4.4882,4.4881,4.4873,4.4872,4.4873,4.4873,4.4874,4.4874,4.4874,4.4755,4.477,4.4835,4.488,4.4911,4.495,4.4963,4.4993,4.502,4.5001,4.5001,4.4963,4.4775,4.4725,4.4883,4.4881,4.488,4.488,4.4879,4.4982,4.4927,4.5027,4.5058,4.5106,4.5164,4.514,4.5201,4.5223,4.5258,4.5213,4.5078,4.5057,4.5041,4.4999,4.5219,4.5219,4.5219,4.5219,4.5106,4.5094,4.519,4.524,4.5287,4.5274,4.5383,4.5393,4.5394,4.5406,4.5372,4.5317,4.5301,4.5289,4.5268,4.5229,4.5502,4.5502,4.5502,4.5242,4.5233,4.5331,4.5332,4.5367,4.5396,4.5496,4.5552,4.5543,4.5513,4.5413,4.5401,4.5312,4.5284,4.525,4.5217,4.5145,0,0]}]]